Weather History for Brisbane Airport M. O, Queensland

Change the Weather History Date:

Tuesday, May 28, 2013

  Actual Average Record
Temperature  
Mean Temperature 64 °F -  
Max Temperature 70 °F 70 °F - ()
Min Temperature 58 °F 52 °F - ()
Degree Days  
Heating Degree Days 1    
Growing Degree Days 14 (Base 50)    
Moisture  
Dew Point 57 °F    
Average Humidity 77    
Maximum Humidity 94    
Minimum Humidity 55    
Precipitation  
Precipitation 0.28 in 0.10 in - ()
Sea Level Pressure  
Sea Level Pressure 30.33 in    
Wind  
Wind Speed 8 mph ()    
Max Wind Speed 14 mph    
Max Gust Speed -    
Visibility 6.5 miles    
Events Rain    
T = Trace of Precipitation, MM = Missing Value Source: Averaged Metar Reports

Daily Weather History Graph

Daily Weather History Graph

Search for Another Location

Airport:

Trip Planner

Search our weather history database for the weather conditions in past years. The results will help you decide how hot, cold, wet, or windy it might be!

Date:

Astronomy

May. 28, 2013 Rise Set
Actual Time 6:27 AM AEST 5:01 PM AEST
Civil Twilight 6:02 AM AEST 5:26 PM AEST
Nautical Twilight 5:33 AM AEST 5:55 PM AEST
Astronomical Twilight 5:05 AM AEST 6:23 PM AEST
Moon 8:23 PM AEST (5/28) 9:10 AM AEST (5/28)
Length of Visible Light 11h 24m
Length of Day
10h 34m
Waning Gibbous, 88% of the Moon is Illuminated
May 28
Waning Gibbous
Jun 1
Last Quarter
Jun 9
New
Jun 17
First Quarter
Jun 23
Full

Hourly Weather History & Observations

Time (AEST) Temp. Dew Point Humidity Pressure Visibility Wind Dir Wind Speed Gust Speed Precip Events Conditions
12:00 AM 60 °F 53 °F 70% 30.31 in 16 mi SSW 10.4 mph - -   Partly Cloudy
12:00 AM 60.8 °F 53.6 °F 77% 30.30 in 6.2 mi SSW 10.4 mph - N/A   Scattered Clouds
12:30 AM 60.8 °F 51.8 °F 72% 30.30 in 6.2 mi SSW 8.1 mph - N/A   Mostly Cloudy
1:00 AM 61 °F 53 °F 67% 30.30 in - SSW 5.8 mph - -  
1:00 AM 60.8 °F 53.6 °F 77% 30.30 in 6.2 mi SSW 5.8 mph - N/A   Mostly Cloudy
1:30 AM 60.8 °F 53.6 °F 77% 30.30 in 6.2 mi SSW 8.1 mph - N/A   Mostly Cloudy
2:00 AM 60.8 °F 53.6 °F 77% 30.27 in 6.2 mi SSW 8.1 mph - N/A   Mostly Cloudy
2:30 AM 59.0 °F 53.6 °F 82% 30.30 in 6.2 mi SW 8.1 mph - N/A   Scattered Clouds
3:00 AM 60 °F 53 °F 72% 30.29 in 12 mi SSW 10.4 mph - -   Mostly Cloudy
3:00 AM 59.0 °F 53.6 °F 82% 30.27 in 6.2 mi SSW 10.4 mph - N/A   Mostly Cloudy
3:30 AM 59.0 °F 53.6 °F 82% 30.27 in 4.3 mi SSW 8.1 mph - N/A Rain Light Rain Showers
4:00 AM 59 °F 54 °F 77% 30.30 in - SW 8.1 mph - -  
4:00 AM 59.0 °F 53.6 °F 82% 30.27 in 5.6 mi SW 8.1 mph - N/A   Mostly Cloudy
4:30 AM 59.0 °F 53.6 °F 82% 30.27 in 5.6 mi SSW 5.8 mph - N/A   Mostly Cloudy
5:00 AM 59.0 °F 53.6 °F 82% 30.30 in 4.3 mi SSW 6.9 mph - N/A Rain Light Rain Showers
5:30 AM 59.0 °F 55.4 °F 88% 30.30 in 5.0 mi SSW 9.2 mph - N/A   Mostly Cloudy
6:00 AM 58 °F 56 °F 91% 30.32 in 9 mi SSW 10.4 mph - - Rain Light Rain Showers
6:00 AM 59.0 °F 55.4 °F 88% 30.30 in 4.3 mi SSW 10.4 mph - N/A Rain Light Rain Showers
6:30 AM 59.0 °F 57.2 °F 94% 30.33 in 5.6 mi SSW 12.7 mph - N/A   Mostly Cloudy
7:00 AM 59 °F 57 °F 89% 30.34 in - SSW 12.7 mph - -  
7:00 AM 59.0 °F 57.2 °F 94% 30.33 in 6.2 mi SSW 12.7 mph - N/A Rain Light Rain Showers
7:30 AM 60.8 °F 57.2 °F 88% 30.33 in 6.2 mi SSW 13.8 mph - N/A   Mostly Cloudy
8:00 AM 62.6 °F 55.4 °F 77% 30.33 in 6.2 mi SSW 12.7 mph - N/A   Mostly Cloudy
8:30 AM 62.6 °F 57.2 °F 82% 30.36 in 6.2 mi SSW 10.4 mph - N/A   Scattered Clouds
9:00 AM 65 °F 56 °F 65% 30.36 in 12 mi South 9.2 mph - -   Partly Cloudy
9:00 AM 64.4 °F 55.4 °F 73% 30.36 in 6.2 mi South 9.2 mph - N/A   Scattered Clouds
9:30 AM 66.2 °F 57.2 °F 73% 30.36 in 6.2 mi South 10.4 mph - N/A   Mostly Cloudy
10:00 AM 68 °F 59 °F 65% 30.37 in - South 10.4 mph - -  
10:00 AM 68.0 °F 59.0 °F 73% 30.36 in 6.2 mi South 10.4 mph - N/A   Partly Cloudy
10:30 AM 68.0 °F 59.0 °F 73% 30.36 in 6.2 mi South 10.4 mph - N/A   Scattered Clouds
11:00 AM 69.8 °F 59.0 °F 68% 30.33 in 6.2 mi South 11.5 mph - N/A   Mostly Cloudy
11:14 AM 68.0 °F 60.8 °F 78% 30.33 in 6.2 mi South 9.2 mph - N/A Rain Light Rain Showers
11:30 AM 66.2 °F 60.8 °F 83% 30.33 in 2.5 mi SE 6.9 mph - N/A Rain Light Rain Showers
12:00 PM 65 °F 62 °F 88% 30.35 in 5 mi East 8.1 mph - - Rain Light Rain Showers
12:00 PM 66.2 °F 62.6 °F 88% 30.33 in 5.0 mi East 8.1 mph - N/A Rain Light Rain Showers
12:12 PM 66.2 °F 62.6 °F 88% 30.33 in 6.2 mi ESE 5.8 mph - N/A   Mostly Cloudy
12:30 PM 68.0 °F 62.6 °F 83% 30.33 in 6.2 mi ESE 8.1 mph - N/A   Mostly Cloudy
1:00 PM 70 °F 59 °F 59% 30.33 in - ESE 11.5 mph - -  
1:00 PM 69.8 °F 59.0 °F 68% 30.33 in 6.2 mi ESE 11.5 mph - N/A   Mostly Cloudy
1:30 PM 68.0 °F 59.0 °F 73% 30.33 in 6.2 mi ESE 10.4 mph - N/A   Mostly Cloudy
2:00 PM 66.2 °F 59.0 °F 78% 30.33 in 6.2 mi ENE 8.1 mph - N/A Rain Light Rain Showers
2:30 PM 66.2 °F 60.8 °F 83% 30.30 in 5.6 mi SE 6.9 mph - N/A   Light Drizzle
3:00 PM 65 °F 61 °F 81% 30.32 in 5 mi SSE 6.9 mph - - Rain Light Drizzle
3:00 PM 66.2 °F 60.8 °F 83% 30.30 in 5.0 mi SSE 6.9 mph - N/A   Mostly Cloudy
3:30 PM 66.2 °F 60.8 °F 83% 30.30 in 6.2 mi South 6.9 mph - N/A   Mostly Cloudy
4:00 PM 66 °F 62 °F 82% 30.32 in - SSE 6.9 mph - -  
4:00 PM 66.2 °F 62.6 °F 88% 30.30 in 6.2 mi SSE 6.9 mph - N/A   Mostly Cloudy
4:30 PM 66.2 °F 59.0 °F 78% 30.33 in 5.6 mi ESE 8.1 mph - N/A   Mostly Cloudy
4:52 PM 64.4 °F 60.8 °F 88% 30.33 in 5.6 mi ESE 11.5 mph - N/A Rain Light Rain Showers
5:00 PM 64.4 °F 60.8 °F 88% 30.33 in 3.7 mi ESE 11.5 mph - N/A   Mostly Cloudy
5:09 PM 64.4 °F 60.8 °F 88% 30.33 in 6.2 mi ESE 9.2 mph - N/A Rain Light Rain Showers
5:30 PM 66.2 °F 59.0 °F 78% 30.33 in 6.2 mi SE 8.1 mph - N/A   Mostly Cloudy
6:00 PM 66 °F 59 °F 72% 30.34 in 12 mi SE 6.9 mph - -   Mostly Cloudy
6:00 PM 66.2 °F 59.0 °F 78% 30.33 in 6.2 mi SE 6.9 mph - N/A   Mostly Cloudy
6:30 PM 66.2 °F 59.0 °F 78% 30.36 in 5.0 mi SE 6.9 mph - N/A Rain Light Rain Showers
7:00 PM 66 °F 58 °F 70% 30.37 in - SSE 4.6 mph - -  
7:00 PM 66.2 °F 59.0 °F 78% 30.36 in 6.2 mi SSE 4.6 mph - N/A   Mostly Cloudy
7:30 PM 66.2 °F 59.0 °F 78% 30.36 in 5.0 mi ESE 11.5 mph - N/A Rain Light Rain Showers
8:00 PM 68.0 °F 55.4 °F 64% 30.36 in 6.2 mi ESE 11.5 mph - N/A   Scattered Clouds
8:30 PM 66.2 °F 55.4 °F 68% 30.36 in 6.2 mi ESE 6.9 mph - N/A   Scattered Clouds
9:00 PM 67 °F 55 °F 55% 30.38 in 16 mi ESE 6.9 mph - -   Partly Cloudy
9:00 PM 66.2 °F 55.4 °F 68% 30.36 in 6.2 mi ESE 6.9 mph - N/A   Scattered Clouds
9:30 PM 66.2 °F 55.4 °F 68% 30.36 in 6.2 mi East 10.4 mph - N/A   Mostly Cloudy
10:00 PM 66 °F 56 °F 62% 30.38 in - ESE 6.9 mph - -  
10:00 PM 66.2 °F 55.4 °F 68% 30.36 in - ESE 6.9 mph - N/A   Clear
10:30 PM 66.2 °F 55.4 °F 68% 30.36 in 6.2 mi SE 5.8 mph - N/A   Scattered Clouds
11:00 PM 66.2 °F 55.4 °F 68% 30.36 in 6.2 mi ESE 8.1 mph - N/A   Mostly Cloudy